Location: Albany
(35.0000°S, 118.0000°E)
Time: 06:25:09
(UTC-04:00)

ERS-1 Rocket - Visible Passes

Search period start: 27 September 2016 00:00
Search period end: 07 October 2016 00:00
Orbit: 753 x 758 km, 98.6° (Epoch: 26 September)

Date Brightness Start Highest point End Pass type
(mag) Time Alt. Az. Time Alt. Az. Time Alt. Az.
02 Oct 5.9 09:47:35 10° S 09:47:36 10° S 09:47:36 10° S visible
04 Oct 5.9 10:07:48 10° S 10:08:02 11° S 10:08:02 11° S visible
05 Oct 5.6 09:27:53 10° S 09:28:13 12° S 09:28:13 12° S visible
06 Oct 6.0 10:28:19 10° SSW 10:28:27 11° SSW 10:28:27 11° SSW visible
